DW4786 Weather Reports


Display with metric or nautical units.
time (UTC)temp
F
wind
direction
speed
MPH
gust
MPH
rain 1hr
in
rain 24hr
in
rain mn
in
humidity
%
barometer
mb
20180625082003 48 0 0.0 0.0 0.00 0.18 0.00 87 1022.1
20180625081503 48 269 1.0 2.0 0.00 0.18 0.00 87 1022.1
20180625081003 48 269 2.0 3.0 0.00 0.18 0.00 87 1022.1
20180625080503 48 269 2.0 4.0 0.00 0.18 0.00 87 1022.1
20180625080003 49 269 1.0 4.0 0.00 0.18 0.00 87 1022.0
20180625075503 49 270 2.0 4.0 0.00 0.18 0.00 86 1021.9
20180625075003 49 274 3.0 7.0 0.00 0.18 0.00 87 1021.7
20180625074503 49 282 3.0 7.0 0.00 0.18 0.00 87 1021.7
20180625074003 49 284 3.0 7.0 0.00 0.18 0.00 87 1021.6
20180625073504 49 285 3.0 7.0 0.00 0.18 0.00 87 1021.7
20180625073003 49 286 3.0 6.0 0.00 0.18 0.00 87 1021.7
20180625072503 49 280 3.0 6.0 0.00 0.18 0.00 87 1021.7
20180625072004 49 276 3.0 6.0 0.00 0.18 0.00 86 1021.5
20180625071503 49 271 3.0 7.0 0.00 0.18 0.00 86 1021.4
20180625071003 49 269 4.0 7.0 0.00 0.18 0.00 86 1021.3
20180625070503 49 270 4.0 8.0 0.00 0.18 0.00 86 1021.2
20180625070003 50 270 5.0 8.0 0.00 0.18 0.00 85 1021.3
20180625065503 50 267 6.0 11.0 0.00 0.18 0.00 85 1021.3
20180625065003 50 265 7.0 11.0 0.00 0.18 0.00 86 1021.3
20180625064502 49 266 7.0 10.0 0.00 0.18 0.00 86 1021.3
20180625064003 49 268 7.0 11.0 0.00 0.18 0.00 86 1021.1
20180625063503 49 269 6.0 11.0 0.00 0.18 0.00 86 1021.2
20180625063003 49 267 6.0 9.0 0.00 0.18 0.00 85 1021.2
20180625062503 49 263 6.0 8.0 0.00 0.18 0.00 84 1021.2
20180625062003 50 263 6.0 9.0 0.00 0.18 0.00 84 1021.3
20180625061503 50 262 6.0 10.0 0.00 0.18 0.00 84 1021.2
20180625061003 50 262 6.0 10.0 0.00 0.18 0.00 84 1021.2
20180625060503 50 266 6.0 9.0 0.00 0.18 0.00 84 1021.2
20180625060003 50 269 5.0 8.0 0.00 0.18 0.00 84 1021.7
20180625055503 50 267 4.0 7.0 0.00 0.18 0.18 85 1021.9
20180625055002 50 265 4.0 8.0 0.00 0.18 0.18 84 1021.8
20180625054503 50 268 5.0 9.0 0.00 0.18 0.18 84 1021.7
20180625054003 50 269 5.0 9.0 0.00 0.18 0.18 84 1021.8
20180625053503 50 269 5.0 9.0 0.00 0.18 0.18 84 1021.7
20180625053003 50 270 6.0 10.0 0.00 0.18 0.18 84 1021.7
20180625052503 50 269 6.0 10.0 0.00 0.18 0.18 84 1021.7
20180625052003 50 270 6.0 10.0 0.00 0.18 0.18 85 1021.8
20180625051504 50 272 5.0 9.0 0.00 0.18 0.18 85 1021.8
20180625051003 50 272 6.0 8.0 0.00 0.18 0.18 86 1022.0
20180625050503 50 275 6.0 9.0 0.00 0.18 0.18 86 1022.0
20180625050003 50 274 6.0 9.0 0.00 0.18 0.18 86 1022.0
20180625045503 50 271 5.0 9.0 0.00 0.18 0.18 86 1022.1
20180625045003 50 270 5.0 9.0 0.00 0.18 0.18 87 1022.1
20180625044503 50 270 4.0 7.0 0.00 0.18 0.18 87 1022.3
20180625044004 50 271 4.0 7.0 0.00 0.18 0.18 87 1022.6
20180625043503 50 270 4.0 7.0 0.00 0.18 0.18 87 1022.7
20180625043004 50 268 4.0 6.0 0.00 0.18 0.18 87 1022.6
20180625042503 50 267 4.0 6.0 0.00 0.18 0.18 86 1022.6
20180625042003 50 267 4.0 6.0 0.00 0.18 0.18 86 1022.6
20180625041503 50 267 3.0 6.0 0.00 0.18 0.18 86 1022.6
20180625041003 50 267 3.0 6.0 0.00 0.18 0.18 85 1022.6
20180625040503 51 267 4.0 6.0 0.00 0.18 0.18 85 1022.4
20180625040003 51 270 4.0 6.0 0.00 0.18 0.18 84 1022.8
20180625035503 51 270 3.0 6.0 0.00 0.18 0.18 84 1022.9
20180625035003 51 261 3.0 6.0 0.00 0.18 0.18 84 1023.0
20180625034504 51 257 3.0 4.0 0.00 0.18 0.18 83 1023.0
20180625034003 51 257 3.0 5.0 0.00 0.18 0.18 83 1022.8
20180625033503 51 257 3.0 5.0 0.00 0.18 0.18 82 1022.7
20180625033003 52 259 3.0 5.0 0.00 0.18 0.18 82 1022.7
20180625032504 52 269 4.0 7.0 0.00 0.18 0.18 81 1022.5
20180625032003 52 277 4.0 7.0 0.00 0.18 0.18 81 1022.2
20180625031503 52 281 4.0 7.0 0.00 0.18 0.18 80 1022.2
20180625031003 53 281 3.0 7.0 0.00 0.18 0.18 80 1022.0
20180625030504 53 281 4.0 7.0 0.00 0.18 0.18 81 1021.9
20180625030003 53 276 4.0 7.0 0.00 0.18 0.18 81 1021.8
20180625025504 53 272 4.0 7.0 0.00 0.18 0.18 81 1021.7
20180625025003 53 272 3.0 6.0 0.00 0.18 0.18 81 1021.7
20180625024503 53 272 3.0 4.0 0.00 0.18 0.18 80 1021.6
20180625024004 54 271 3.0 4.0 0.00 0.18 0.18 79 1021.5
20180625023503 54 276 3.0 8.0 0.00 0.18 0.18 78 1021.3
20180625023003 54 287 3.0 9.0 0.00 0.18 0.18 78 1021.3
20180625022503 54 295 4.0 9.0 0.00 0.18 0.18 78 1021.2
20180625022003 54 303 4.0 8.0 0.00 0.18 0.18 78 1021.0
20180625021503 54 305 4.0 9.0 0.00 0.18 0.18 78 1021.0
20180625021003 54 300 5.0 11.0 0.00 0.18 0.18 77 1020.9
20180625020503 55 297 5.0 11.0 0.00 0.18 0.18 77 1021.0
20180625020003 55 303 4.0 8.0 0.00 0.18 0.18 76 1021.3
20180625015503 55 314 4.0 8.0 0.00 0.18 0.18 76 1021.1
20180625015003 55 319 4.0 8.0 0.00 0.18 0.18 76 1021.1
20180625014503 56 334 4.0 10.0 0.00 0.18 0.18 74 1020.8
20180625014003 56 346 4.0 10.0 0.00 0.18 0.18 74 1020.8
20180625013503 56 354 4.0 10.0 0.00 0.18 0.18 74 1020.9
20180625013003 57 1 5.0 10.0 0.00 0.18 0.18 74 1021.1
20180625012503 57 8 5.0 10.0 0.00 0.18 0.18 74 1021.1
20180625012003 58 352 5.0 12.0 0.00 0.18 0.18 72 1021.1
20180625011504 58 327 5.0 12.0 0.00 0.18 0.18 66 1020.6
20180625011003 59 321 6.0 12.0 0.00 0.18 0.18 65 1020.5
20180625010503 59 326 6.0 13.0 0.00 0.18 0.18 62 1020.7
20180625010003 59 321 6.0 13.0 0.00 0.18 0.18 61 1020.9
20180625005503 59 303 7.0 10.0 0.00 0.18 0.18 59 1020.9
20180625005003 59 296 7.0 13.0 0.00 0.18 0.18 58 1020.8
20180625004503 59 298 8.0 13.0 0.00 0.18 0.18 58 1020.9
20180625004004 59 300 8.0 14.0 0.00 0.18 0.18 57 1020.7
20180625003503 59 312 7.0 14.0 0.00 0.18 0.18 59 1021.0
20180625003003 59 318 7.0 12.0 0.00 0.18 0.18 60 1020.9
20180625002503 59 311 6.0 12.0 0.00 0.18 0.18 63 1021.0
20180625002003 59 310 7.0 13.0 0.00 0.18 0.18 61 1021.1
20180625001503 59 303 9.0 15.0 0.00 0.18 0.18 59 1021.1
20180625001003 59 297 8.0 15.0 0.00 0.18 0.18 61 1020.9
20180625000503 59 298 7.0 13.0 0.00 0.18 0.18 67 1020.9
20180625000004 59 292 8.0 13.0 0.00 0.18 0.18 66 1020.7
20180624235503 58 291 8.0 11.0 0.00 0.18 0.18 67 1020.7
20180624235003 57 289 6.0 12.0 0.00 0.18 0.18 69 1020.5
20180624234503 57 281 7.0 14.0 0.00 0.18 0.18 72 1020.9
20180624234004 56 281 7.0 14.0 0.00 0.18 0.18 72 1020.5
20180624233503 56 294 7.0 12.0 0.00 0.18 0.18 77 1020.1
20180624233003 56 290 7.0 12.0 0.00 0.18 0.18 76 1020.2
20180624232504 55 276 4.0 12.0 0.00 0.18 0.18 77 1020.5
20180624232003 55 273 3.0 9.0 0.00 0.18 0.18 80 1020.4
20180624231503 55 287 4.0 9.0 0.00 0.18 0.18 81 1020.4
20180624231003 55 325 3.0 9.0 0.00 0.18 0.18 83 1020.2
20180624230504 54 347 3.0 7.0 0.00 0.18 0.18 84 1019.4
20180624230003 54 354 3.0 6.0 0.00 0.18 0.18 87 1019.8
20180624225503 53 9 3.0 8.0 0.00 0.18 0.18 88 1019.9
20180624225003 52 21 3.0 9.0 0.00 0.18 0.18 88 1020.0
20180624224503 52 17 3.0 9.0 0.00 0.18 0.18 88 1020.1
20180624224003 52 21 3.0 6.0 0.00 0.18 0.18 90 1020.2
20180624223503 51 35 4.0 7.0 0.00 0.18 0.18 90 1020.0
20180624223003 51 48 5.0 9.0 0.00 0.18 0.18 91 1020.3
20180624222503 51 47 6.0 11.0 0.00 0.18 0.18 91 1020.4
20180624222003 50 30 5.0 11.0 0.00 0.18 0.18 91 1020.1
20180624221503 50 341 4.0 9.0 0.02 0.18 0.18 92 1020.0
20180624221003 50 312 5.0 11.0 0.02 0.18 0.18 91 1020.1
20180624220503 50 305 6.0 11.0 0.03 0.18 0.18 92 1020.4
20180624220003 50 308 5.0 10.0 0.03 0.18 0.18 92 1021.0
20180624215503 50 315 5.0 10.0 0.04 0.18 0.18 92 1020.9
20180624215003 49 316 5.0 10.0 0.04 0.18 0.18 92 1020.9
20180624214503 49 316 4.0 9.0 0.05 0.18 0.18 92 1020.7
20180624214003 49 349 4.0 8.0 0.05 0.18 0.18 92 1020.7
20180624213503 49 21 3.0 8.0 0.06 0.18 0.18 92 1020.7
20180624213003 49 359 2.0 7.0 0.06 0.18 0.18 92 1020.4
20180624212503 49 247 2.0 9.0 0.06 0.18 0.18 91 1020.2
20180624212003 49 238 2.0 9.0 0.06 0.18 0.18 91 1020.5
20180624211503 49 279 3.0 9.0 0.04 0.16 0.16 91 1020.2
20180624211003 49 298 5.0 13.0 0.04 0.16 0.16 91 1020.0
20180624210503 49 319 4.0 13.0 0.03 0.15 0.15 91 1019.7
20180624210004 49 342 3.0 8.0 0.03 0.15 0.15 90 1019.5
20180624205503 49 334 4.0 10.0 0.02 0.14 0.14 90 1018.9
20180624205003 49 320 5.0 10.0 0.02 0.14 0.14 89 1019.1
20180624204503 49 321 7.0 16.0 0.01 0.13 0.13 87 1019.4
20180624204003 49 320 9.0 16.0 0.01 0.13 0.13 85 1018.9
20180624203503 49 311 11.0 26.0 0.00 0.12 0.12 85 1019.1
20180624203003 50 304 12.0 26.0 0.00 0.12 0.12 85 1019.1
20180624202503 53 302 9.0 26.0 0.00 0.12 0.12 83 1019.4
20180624202003 56 305 5.0 12.0 0.00 0.12 0.12 92 1019.2
20180624201503 56 297 4.0 8.0 0.05 0.12 0.12 92 1018.7
20180624201003 56 296 2.0 7.0 0.07 0.12 0.12 92 1018.5
20180624200503 55 34 1.0 4.0 0.11 0.12 0.12 92 1018.3
20180624200003 55 96 2.0 8.0 0.12 0.12 0.12 92 1018.4
20180624195504 55 86 3.0 8.0 0.12 0.12 0.12 92 1018.3
20180624195003 55 75 2.0 7.0 0.12 0.12 0.12 92 1018.1
20180624194503 54 65 0.0 6.0 0.12 0.12 0.12 92 1018.3
20180624194003 54 59 1.0 6.0 0.12 0.12 0.12 91 1018.6
20180624193503 54 55 5.0 14.0 0.12 0.12 0.12 91 1018.5
20180624193003 54 57 9.0 15.0 0.12 0.12 0.12 91 1018.0
20180624192504 54 63 9.0 15.0 0.12 0.12 0.12 90 1017.5
20180624192004 55 52 5.0 15.0 0.12 0.12 0.12 88 1018.0
20180624191503 56 309 3.0 5.0 0.07 0.07 0.07 88 1019.2
20180624191003 56 17 4.0 8.0 0.05 0.05 0.05 87 1019.1
20180624190503 56 57 7.0 15.0 0.01 0.01 0.01 85 1018.5
20180624190003 56 59 10.0 16.0 0.00 0.00 0.00 83 1018.1
20180624185503 57 60 12.0 17.0 0.00 0.00 0.00 81 1017.5
20180624185004 57 64 11.0 17.0 0.00 0.00 0.00 80 1017.4
20180624184503 58 64 9.0 16.0 0.00 0.00 0.00 78 1017.7
20180624184003 58 68 9.0 13.0 0.00 0.00 0.00 77 1017.7
20180624183503 58 80 9.0 14.0 0.00 0.00 0.00 75 1017.0
20180624183003 59 83 9.0 14.0 0.00 0.00 0.00 75 1017.1
20180624182503 59 75 9.0 14.0 0.00 0.00 0.00 74 1017.2
20180624182002 60 70 10.0 15.0 0.00 0.00 0.00 73 1017.6
20180624181503 60 72 10.0 15.0 0.00 0.00 0.00 71 1017.6
20180624181003 61 71 10.0 19.0 0.00 0.00 0.00 69 1017.7
20180624180503 61 67 12.0 19.0 0.00 0.00 0.00 68 1017.5
20180624180003 63 64 11.0 19.0 0.00 0.00 0.00 64 1017.9
20180624175503 63 66 10.0 16.0 0.00 0.00 0.00 65 1017.7
20180624175003 63 74 9.0 16.0 0.00 0.00 0.00 66 1017.7
20180624174502 62 66 9.0 13.0 0.00 0.00 0.00 66 1018.0
20180624174003 62 52 8.0 15.0 0.00 0.00 0.00 65 1018.1
20180624173503 62 52 8.0 15.0 0.00 0.00 0.00 66 1018.1
20180624173003 62 55 7.0 13.0 0.00 0.00 0.00 65 1018.3
20180624172503 63 70 7.0 13.0 0.00 0.00 0.00 62 1018.4
20180624172003 62 74 6.0 10.0 0.00 0.00 0.00 62 1018.5
20180624171503 62 63 4.0 10.0 0.00 0.00 0.00 63 1018.6
20180624171003 63 79 3.0 7.0 0.00 0.00 0.00 60 1018.8
20180624170504 63 81 4.0 13.0 0.00 0.00 0.00 60 1018.8
20180624170003 64 98 5.0 13.0 0.00 0.00 0.00 58 1018.6
20180624165503 64 88 6.0 11.0 0.00 0.00 0.00 61 1018.7
20180624165003 63 78 5.0 11.0 0.00 0.00 0.00 62 1018.7
20180624164503 63 84 5.0 9.0 0.00 0.00 0.00 62 1018.8
20180624164003 62 87 5.0 9.0 0.00 0.00 0.00 63 1018.8
20180624163503 62 84 6.0 12.0 0.00 0.00 0.00 63 1018.8
20180624163003 61 74 7.0 12.0 0.00 0.00 0.00 65 1018.7
20180624162503 61 82 5.0 11.0 0.00 0.00 0.00 65 1018.6
20180624162003 62 88 4.0 10.0 0.00 0.00 0.00 62 1018.6
20180624161503 61 78 5.0 10.0 0.00 0.00 0.00 65 1018.6
20180624161003 61 78 6.0 17.0 0.00 0.00 0.00 65 1018.7
20180624160503 61 82 6.0 17.0 0.00 0.00 0.00 65 1018.7
20180624160003 60 85 5.0 11.0 0.00 0.00 0.00 65 1018.6
20180624155502 60 77 5.0 11.0 0.00 0.00 0.00 68 1018.4
20180624155004 60 78 4.0 11.0 0.00 0.00 0.00 67 1018.2
20180624154504 60 97 5.0 9.0 0.00 0.00 0.00 66 1018.1
20180624154002 59 101 6.0 11.0 0.00 0.00 0.00 66 1018.2
20180624153503 59 94 6.0 11.0 0.00 0.00 0.00 66 1018.4
20180624153003 59 92 4.0 10.0 0.00 0.00 0.00 67 1018.4
20180624152503 59 87 4.0 12.0 0.00 0.00 0.00 67 1018.3
20180624152003 58 89 4.0 12.0 0.00 0.00 0.00 68 1018.1
20180624151503 58 84 5.0 9.0 0.00 0.00 0.00 67 1018.1
20180624151003 58 78 6.0 11.0 0.00 0.00 0.00 68 1018.1
20180624150503 58 84 5.0 11.0 0.00 0.00 0.00 67 1018.1
20180624150003 58 92 4.0 9.0 0.00 0.00 0.00 67 1018.6
20180624145504 57 86 3.0 7.0 0.00 0.00 0.00 68 1018.6
20180624145003 57 52 4.0 10.0 0.00 0.00 0.00 69 1018.5
20180624144503 57 52 4.0 11.0 0.00 0.00 0.00 67 1018.4
20180624144002 58 64 4.0 11.0 0.00 0.00 0.00 66 1018.3
20180624143503 58 71 3.0 8.0 0.00 0.00 0.00 65 1018.3
20180624143003 57 71 3.0 8.0 0.00 0.00 0.00 66 1018.2
20180624142503 56 70 4.0 9.0 0.00 0.00 0.00 68 1018.5
20180624142003 56 70 5.0 9.0 0.00 0.00 0.00 68 1018.5
20180624141503 56 59 4.0 8.0 0.00 0.00 0.00 68 1018.5
20180624141003 56 65 4.0 8.0 0.00 0.00 0.00 69 1018.5
20180624140503 55 70 3.0 6.0 0.00 0.00 0.00 70 1018.3
20180624140003 55 71 3.0 6.0 0.00 0.00 0.00 70 1018.3
20180624135503 55 74 4.0 7.0 0.00 0.00 0.00 71 1018.3
20180624135003 55 73 4.0 8.0 0.00 0.00 0.00 71 1018.3
20180624134503 55 75 4.0 8.0 0.00 0.00 0.00 71 1018.1
20180624134003 54 74 4.0 8.0 0.00 0.00 0.00 70 1018.1
20180624133502 54 74 5.0 10.0 0.00 0.00 0.00 70 1018.1
20180624133003 55 82 5.0 10.0 0.00 0.00 0.00 70 1017.8
20180624132503 55 91 5.0 10.0 0.00 0.00 0.00 72 1017.9
20180624132003 54 97 4.0 11.0 0.00 0.00 0.00 73 1017.8
20180624131502 54 103 5.0 11.0 0.00 0.00 0.00 73 1017.8
20180624131003 54 96 5.0 9.0 0.00 0.00 0.00 72 1017.6
20180624130503 54 99 5.0 8.0 0.00 0.00 0.00 76 1017.5
20180624130003 53 103 5.0 9.0 0.00 0.00 0.00 77 1017.6
20180624125503 53 102 4.0 9.0 0.00 0.00 0.00 79 1017.4
20180624125003 52 104 2.0 7.0 0.00 0.00 0.00 83 1017.6
20180624124503 51 0 0.0 0.0 0.00 0.00 0.00 85 1017.9
20180624124003 51 0 0.0 0.0 0.00 0.00 0.00 86 1018.2
20180624123503 50 274 1.0 3.0 0.00 0.00 0.00 86 1018.3
20180624123003 50 274 1.0 3.0 0.00 0.00 0.00 87 1018.4
20180624122503 50 274 2.0 6.0 0.00 0.00 0.00 87 1018.4
20180624122007 50 275 2.0 7.0 0.00 0.00 0.00 87 1018.4
20180624121503 50 285 3.0 7.0 0.00 0.00 0.00 87 1018.6
20180624121003 50 282 4.0 7.0 0.00 0.00 0.00 87 1018.7
20180624120503 50 281 4.0 6.0 0.00 0.00 0.00 87 1018.8
20180624120004 50 292 3.0 6.0 0.00 0.00 0.00 87 1018.6
20180624115504 50 296 2.0 5.0 0.00 0.00 0.00 87 1018.2
20180624115003 50 297 2.0 5.0 0.00 0.00 0.00 87 1018.0
20180624114503 50 313 2.0 5.0 0.00 0.00 0.00 87 1018.0
20180624114003 50 328 1.0 4.0 0.00 0.00 0.00 86 1018.0
20180624113503 50 330 1.0 4.0 0.00 0.00 0.00 87 1018.1
20180624113003 50 333 1.0 5.0 0.00 0.00 0.00 87 1017.8
20180624112503 50 334 2.0 5.0 0.00 0.00 0.00 87 1017.6
20180624112003 50 328 3.0 11.0 0.00 0.00 0.00 87 1017.7
20180624111503 50 323 4.0 11.0 0.00 0.00 0.00 86 1017.7
20180624111003 50 320 3.0 5.0 0.00 0.00 0.00 86 1017.7
20180624110503 50 322 4.0 9.0 0.00 0.00 0.00 86 1017.6
20180624110003 50 322 5.0 9.0 0.00 0.00 0.00 86 1017.7
20180624105503 50 322 5.0 9.0 0.00 0.00 0.00 86 1017.8
20180624105003 50 317 5.0 10.0 0.00 0.00 0.00 85 1017.7
20180624104503 51 306 6.0 10.0 0.00 0.00 0.00 85 1017.8
20180624104003 51 298 6.0 10.0 0.00 0.00 0.00 85 1017.9
20180624103503 51 300 5.0 10.0 0.00 0.00 0.00 85 1017.8
20180624103003 51 300 6.0 11.0 0.00 0.00 0.00 84 1017.4
20180624102505 51 295 6.0 11.0 0.00 0.00 0.00 84 1017.5
20180624102003 51 290 7.0 12.0 0.00 0.00 0.00 84 1017.7
20180624101503 51 290 8.0 12.0 0.00 0.00 0.00 84 1017.6
20180624101003 51 289 6.0 11.0 0.00 0.00 0.00 83 1017.5
20180624100502 51 289 5.0 10.0 0.00 0.00 0.00 84 1017.5
20180624100003 51 290 6.0 9.0 0.00 0.00 0.00 83 1017.4
20180624095503 51 282 6.0 9.0 0.00 0.00 0.00 83 1017.1
20180624095003 51 274 5.0 9.0 0.00 0.00 0.00 84 1017.2
20180624094503 51 280 5.0 9.0 0.00 0.00 0.00 84 1017.2
20180624094003 51 286 5.0 8.0 0.00 0.00 0.00 84 1017.2
20180624093503 51 280 5.0 9.0 0.00 0.00 0.00 84 1017.2
20180624093002 51 278 5.0 9.0 0.00 0.00 0.00 84 1017.2
20180624092503 52 285 5.0 9.0 0.00 0.00 0.00 84 1017.6
20180624091003 52 273 8.0 11.0 0.00 0.00 0.00 83 1017.8
20180624090502 52 276 8.0 13.0 0.00 0.00 0.00 82 1017.8
20180624090004 52 279 9.0 13.0 0.00 0.00 0.00 82 1017.8
20180624085503 53 277 9.0 14.0 0.00 0.00 0.00 83 1017.8
20180624085003 53 276 9.0 14.0 0.00 0.00 0.00 83 1017.9
20180624084502 53 279 10.0 17.0 0.00 0.00 0.00 82 1017.7
20180624084003 53 278 11.0 17.0 0.00 0.00 0.00 82 1018.1
20180624083503 53 280 10.0 17.0 0.00 0.00 0.00 82 1018.1
20180624083003 53 284 9.0 15.0 0.00 0.00 0.00 81 1017.9
20180624082503 53 278 9.0 12.0 0.00 0.00 0.00 81 1017.8